KQA671 HKMO-HKJK

Flight info

Callsign KQA671
Flight time 0h 59m
Altitude 24000
Route NERAG1A UTIKU Q315 UTEPI UTEPI1A
Aircraft B77W/H-SDE1E2E3FGHIJ2J3J4J5M1RWXY/LB1D1

Departure

Time 2026-04-21 18:44
Airport Moi International Airport (HKMO)

Arrival

Time 2026-04-21 19:43
Airport Jomo Kenyatta International Airport (HKJK)
Time Latitude Longitude Altitude Speed Heading
2026-04-21 18:03 -4.03199 39.60196 217 ft 0 kts 109°
2026-04-21 18:32 -4.03194 39.60186 217 ft 2 kts 116°
2026-04-21 18:32 -4.03188 39.60172 217 ft 2 kts 114°
2026-04-21 18:32 -4.03181 39.60157 217 ft 2 kts 114°
2026-04-21 18:32 -4.03175 39.60143 217 ft 2 kts 113°
2026-04-21 18:33 -4.03171 39.60133 217 ft 1 kts 82°
2026-04-21 18:33 -4.03174 39.60123 217 ft 2 kts 53°
2026-04-21 18:33 -4.03181 39.60114 217 ft 2 kts 25°
2026-04-21 18:33 -4.03195 39.60108 217 ft 1 kts 28°
2026-04-21 18:34 -4.03195 39.60107 217 ft 0 kts 28°
2026-04-21 18:36 -4.03194 39.60108 217 ft 1 kts 28°
2026-04-21 18:36 -4.03156 39.60129 217 ft 13 kts 28°
2026-04-21 18:37 -4.03071 39.60172 217 ft 1 kts 15°
2026-04-21 18:37 -4.03070 39.60172 217 ft 0 kts 15°
2026-04-21 18:38 -4.03051 39.60169 217 ft 7 kts 342°
2026-04-21 18:38 -4.03014 39.60115 217 ft 10 kts 293°
2026-04-21 18:38 -4.03002 39.60047 217 ft 14 kts 281°
2026-04-21 18:38 -4.02971 39.59968 217 ft 8 kts 297°
2026-04-21 18:39 -4.02950 39.59950 217 ft 5 kts 336°
2026-04-21 18:39 -4.02885 39.59960 217 ft 15 kts 19°
2026-04-21 18:39 -4.02775 39.60018 217 ft 23 kts 29°
2026-04-21 18:39 -4.02628 39.60101 217 ft 22 kts 29°
2026-04-21 18:40 -4.02472 39.60189 217 ft 30 kts 29°
2026-04-21 18:40 -4.02296 39.60288 217 ft 23 kts 29°
2026-04-21 18:40 -4.02215 39.60333 217 ft 18 kts 29°
2026-04-21 18:40 -4.02034 39.60435 217 ft 29 kts 29°
2026-04-21 18:41 -4.01843 39.60543 217 ft 23 kts 29°
2026-04-21 18:41 -4.01722 39.60610 217 ft 19 kts 29°
2026-04-21 18:41 -4.01585 39.60686 217 ft 24 kts 29°
2026-04-21 18:41 -4.01473 39.60733 217 ft 13 kts
2026-04-21 18:42 -4.01380 39.60711 217 ft 12 kts 328°
2026-04-21 18:42 -4.01365 39.60698 217 ft 0 kts 312°
2026-04-21 18:42 -4.01365 39.60697 217 ft 1 kts 312°
2026-04-21 18:43 -4.01344 39.60671 217 ft 10 kts 300°
2026-04-21 18:43 -4.01367 39.60612 217 ft 9 kts 210°
2026-04-21 18:43 -4.01443 39.60569 217 ft 18 kts 210°
2026-04-21 18:43 -4.01611 39.60474 217 ft 54 kts 210°
2026-04-21 18:44 -4.02250 39.60117 218 ft 161 kts 208°
2026-04-21 18:44 -4.03542 39.59402 311 ft 255 kts 209°
2026-04-21 18:44 -4.05313 39.58420 841 ft 312 kts 209°
2026-04-21 18:44 -4.07083 39.57202 1206 ft 309 kts 221°
2026-04-21 18:45 -4.08385 39.55466 310 ft 307 kts 249°
2026-04-21 18:45 -4.08585 39.53591 299 ft 256 kts 279°
2026-04-21 18:45 -4.07851 39.51989 387 ft 252 kts 306°
2026-04-21 18:45 -4.06696 39.50655 651 ft 247 kts 314°
2026-04-21 18:46 -4.05522 39.49494 1529 ft 235 kts 316°
2026-04-21 18:46 -4.04350 39.48320 2217 ft 250 kts 314°
2026-04-21 18:46 -4.03140 39.46997 2861 ft 262 kts 310°
2026-04-21 18:46 -4.02073 39.45503 3293 ft 268 kts 302°
2026-04-21 18:47 -4.01230 39.43796 3483 ft 275 kts 292°
2026-04-21 18:47 -4.00683 39.41998 3952 ft 267 kts 283°
2026-04-21 18:47 -4.00280 39.40138 4891 ft 284 kts 285°
2026-04-21 18:47 -3.99499 39.38335 5506 ft 271 kts 300°
2026-04-21 18:48 -3.98472 39.36784 6258 ft 271 kts 307°
2026-04-21 18:48 -3.97282 39.35288 7017 ft 274 kts 310°
2026-04-21 18:48 -3.96027 39.33853 7767 ft 274 kts 312°
2026-04-21 18:48 -3.94728 39.32442 8521 ft 277 kts 313°
2026-04-21 18:49 -3.93404 39.31043 9271 ft 278 kts 314°
2026-04-21 18:49 -3.92055 39.29636 10025 ft 280 kts 314°
2026-04-21 18:49 -3.91159 39.28708 10521 ft 282 kts 314°
2026-04-21 18:49 -3.89339 39.26828 11519 ft 285 kts 314°
2026-04-21 18:50 -3.87948 39.25395 12273 ft 288 kts 314°
2026-04-21 18:50 -3.86554 39.23958 13022 ft 290 kts 314°
2026-04-21 18:50 -3.85141 39.22503 13775 ft 292 kts 313°
2026-04-21 18:50 -3.83710 39.21029 14531 ft 299 kts 313°
2026-04-21 18:51 -3.82217 39.19489 15301 ft 320 kts 313°
2026-04-21 18:51 -3.80585 39.17804 16083 ft 355 kts 313°
2026-04-21 18:51 -3.78787 39.15944 16861 ft 388 kts 313°
2026-04-21 18:51 -3.76891 39.13986 17617 ft 403 kts 313°
2026-04-21 18:52 -3.74946 39.11981 18367 ft 399 kts 313°
2026-04-21 18:52 -3.73003 39.09983 19117 ft 401 kts 312°
2026-04-21 18:52 -3.71051 39.07974 19867 ft 406 kts 312°
2026-04-21 18:52 -3.69065 39.05930 20622 ft 412 kts 312°
2026-04-21 18:53 -3.67061 39.03866 21374 ft 416 kts 312°
2026-04-21 18:53 -3.65027 39.01770 22129 ft 421 kts 312°
2026-04-21 18:53 -3.62975 38.99656 22882 ft 426 kts 312°
2026-04-21 18:53 -3.60903 38.97520 23634 ft 430 kts 312°
2026-04-21 18:54 -3.58793 38.95345 24131 ft 442 kts 312°
2026-04-21 18:54 -3.56608 38.93090 24104 ft 457 kts 312°
2026-04-21 18:54 -3.54431 38.90846 24035 ft 453 kts 312°
2026-04-21 18:54 -3.52241 38.88593 24004 ft 451 kts 312°
2026-04-21 18:55 -3.50763 38.87072 23998 ft 451 kts 312°
2026-04-21 18:55 -3.47870 38.84091 23996 ft 451 kts 312°
2026-04-21 18:55 -3.45684 38.81837 23996 ft 451 kts 312°
2026-04-21 18:55 -3.43502 38.79586 23996 ft 451 kts 312°
2026-04-21 18:56 -3.41316 38.77330 23996 ft 451 kts 312°
2026-04-21 18:56 -3.39135 38.75079 23996 ft 451 kts 312°
2026-04-21 18:56 -3.36952 38.72826 23996 ft 451 kts 312°
2026-04-21 18:56 -3.34767 38.70570 23996 ft 451 kts 312°
2026-04-21 18:57 -3.32621 38.68354 23996 ft 451 kts 312°
2026-04-21 18:57 -3.30445 38.66107 23996 ft 451 kts 312°
2026-04-21 18:57 -3.28256 38.63847 23996 ft 451 kts 312°
2026-04-21 18:57 -3.26074 38.61594 23996 ft 451 kts 312°
2026-04-21 18:58 -3.23895 38.59345 23996 ft 451 kts 312°
2026-04-21 18:58 -3.21718 38.57097 23996 ft 451 kts 312°
2026-04-21 18:58 -3.19531 38.54838 23996 ft 451 kts 312°
2026-04-21 18:58 -3.17358 38.52595 23996 ft 451 kts 312°
2026-04-21 18:59 -3.15201 38.50368 23996 ft 451 kts 312°
2026-04-21 18:59 -3.13019 38.48116 23996 ft 451 kts 312°
2026-04-21 18:59 -3.10841 38.45868 23996 ft 451 kts 312°
2026-04-21 18:59 -3.08666 38.43623 23996 ft 451 kts 312°
2026-04-21 19:00 -3.06479 38.41365 23996 ft 451 kts 312°
2026-04-21 19:00 -3.04298 38.39115 23996 ft 451 kts 312°
2026-04-21 19:00 -3.02120 38.36867 23996 ft 451 kts 312°
2026-04-21 19:00 -2.99931 38.34608 23996 ft 451 kts 312°
2026-04-21 19:01 -2.97731 38.32388 23996 ft 451 kts 314°
2026-04-21 19:01 -2.95466 38.30213 23996 ft 451 kts 314°
2026-04-21 19:01 -2.93206 38.28087 23996 ft 451 kts 315°
2026-04-21 19:01 -2.90917 38.25943 23996 ft 451 kts 315°
2026-04-21 19:02 -2.88638 38.23792 23996 ft 451 kts 314°
2026-04-21 19:02 -2.86369 38.21626 23996 ft 451 kts 314°
2026-04-21 19:02 -2.84114 38.19443 23996 ft 451 kts 314°
2026-04-21 19:02 -2.81872 38.17244 23996 ft 451 kts 313°
2026-04-21 19:03 -2.79651 38.15037 23996 ft 451 kts 313°
2026-04-21 19:03 -2.77432 38.12807 23996 ft 451 kts 313°
2026-04-21 19:03 -2.75235 38.10578 23996 ft 451 kts 313°
2026-04-21 19:03 -2.73072 38.08365 23996 ft 451 kts 312°
2026-04-21 19:04 -2.70860 38.06087 23996 ft 451 kts 312°
2026-04-21 19:04 -2.68718 38.03867 23996 ft 450 kts 312°
2026-04-21 19:04 -2.66540 38.01601 23996 ft 450 kts 312°
2026-04-21 19:04 -2.64374 37.99337 23996 ft 450 kts 312°
2026-04-21 19:05 -2.62214 37.97074 23996 ft 450 kts 311°
2026-04-21 19:05 -2.60053 37.94805 23996 ft 450 kts 311°
2026-04-21 19:05 -2.57892 37.92531 23996 ft 450 kts 311°
2026-04-21 19:05 -2.55744 37.90267 23996 ft 450 kts 311°
2026-04-21 19:06 -2.53587 37.87993 23996 ft 450 kts 311°
2026-04-21 19:06 -2.51425 37.85710 23996 ft 450 kts 311°
2026-04-21 19:06 -2.49275 37.83439 23996 ft 450 kts 311°
2026-04-21 19:06 -2.47120 37.81161 23996 ft 450 kts 311°
2026-04-21 19:07 -2.44999 37.78919 23996 ft 450 kts 311°
2026-04-21 19:07 -2.42849 37.76645 23996 ft 450 kts 311°
2026-04-21 19:07 -2.40693 37.74365 23996 ft 450 kts 311°
2026-04-21 19:07 -2.38548 37.72096 23996 ft 450 kts 311°
2026-04-21 19:08 -2.36390 37.69813 23996 ft 450 kts 311°
2026-04-21 19:08 -2.34246 37.67545 23996 ft 450 kts 311°
2026-04-21 19:08 -2.32089 37.65263 23996 ft 450 kts 311°
2026-04-21 19:08 -2.29960 37.63011 23908 ft 452 kts 311°
2026-04-21 19:09 -2.27806 37.60731 23748 ft 452 kts 311°
2026-04-21 19:09 -2.25649 37.58450 23574 ft 450 kts 311°
2026-04-21 19:09 -2.23497 37.56173 23397 ft 449 kts 311°
2026-04-21 19:09 -2.21357 37.53909 23220 ft 448 kts 311°
2026-04-21 19:10 -2.19215 37.51644 23042 ft 447 kts 311°
2026-04-21 19:10 -2.17087 37.49393 22866 ft 446 kts 311°
2026-04-21 19:10 -2.14956 37.47138 22676 ft 445 kts 311°
2026-04-21 19:10 -2.12816 37.44874 22189 ft 448 kts 311°
2026-04-21 19:11 -2.10716 37.42652 21695 ft 443 kts 311°
2026-04-21 19:11 -2.08617 37.40433 21194 ft 435 kts 311°
2026-04-21 19:11 -2.06561 37.38258 20691 ft 426 kts 311°
2026-04-21 19:11 -2.04681 37.36019 20187 ft 416 kts 305°
2026-04-21 19:12 -2.03600 37.34451 19856 ft 410 kts 301°
2026-04-21 19:12 -2.01702 37.31203 19190 ft 401 kts 297°
2026-04-21 19:12 -2.00442 37.28747 18690 ft 394 kts 295°
2026-04-21 19:12 -1.99261 37.26288 18188 ft 389 kts 294°
2026-04-21 19:13 -1.98134 37.23853 17687 ft 384 kts 294°
2026-04-21 19:13 -1.97051 37.21465 17192 ft 380 kts 294°
2026-04-21 19:13 -1.95972 37.19070 16690 ft 376 kts 294°
2026-04-21 19:13 -1.94913 37.16717 16244 ft 363 kts 294°
2026-04-21 19:14 -1.93909 37.14494 15771 ft 340 kts 294°
2026-04-21 19:14 -1.92952 37.12381 15267 ft 329 kts 294°
2026-04-21 19:14 -1.92017 37.10324 14763 ft 321 kts 294°
2026-04-21 19:14 -1.91102 37.08320 14263 ft 316 kts 294°
2026-04-21 19:15 -1.90210 37.06372 13831 ft 296 kts 295°
2026-04-21 19:15 -1.89365 37.04536 13350 ft 289 kts 295°
2026-04-21 19:15 -1.88524 37.02711 13054 ft 287 kts 295°
2026-04-21 19:15 -1.87688 37.00903 13008 ft 286 kts 295°
2026-04-21 19:16 -1.86873 36.99144 13031 ft 272 kts 295°
2026-04-21 19:16 -1.86102 36.97482 13004 ft 259 kts 295°
2026-04-21 19:16 -1.85349 36.95860 13000 ft 257 kts 295°
2026-04-21 19:16 -1.84596 36.94241 13000 ft 257 kts 295°
2026-04-21 19:17 -1.83085 36.90991 13000 ft 258 kts 295°
2026-04-21 19:17 -1.82327 36.89360 13000 ft 259 kts 295°
2026-04-21 19:17 -1.81465 36.87784 12979 ft 259 kts 302°
2026-04-21 19:18 -1.80228 36.86484 13013 ft 258 kts 315°
2026-04-21 19:18 -1.78888 36.85323 12962 ft 260 kts 319°
2026-04-21 19:18 -1.77462 36.84143 12790 ft 264 kts 320°
2026-04-21 19:18 -1.76053 36.82990 12616 ft 264 kts 320°
2026-04-21 19:19 -1.74630 36.81827 12440 ft 264 kts 320°
2026-04-21 19:19 -1.73210 36.80666 12264 ft 264 kts 320°
2026-04-21 19:19 -1.71795 36.79508 12087 ft 263 kts 320°
2026-04-21 19:19 -1.70374 36.78342 11692 ft 268 kts 320°
2026-04-21 19:20 -1.68943 36.77166 11410 ft 263 kts 320°
2026-04-21 19:20 -1.67538 36.76008 11176 ft 260 kts 320°
2026-04-21 19:20 -1.66143 36.74858 10951 ft 260 kts 320°
2026-04-21 19:20 -1.64752 36.73708 10727 ft 260 kts 320°
2026-04-21 19:21 -1.63354 36.72550 10501 ft 260 kts 320°
2026-04-21 19:21 -1.61984 36.71415 10279 ft 259 kts 320°
2026-04-21 19:21 -1.60597 36.70263 10053 ft 258 kts 320°
2026-04-21 19:21 -1.59219 36.69118 9828 ft 257 kts 320°
2026-04-21 19:22 -1.57745 36.68114 9556 ft 259 kts 329°
2026-04-21 19:22 -1.55974 36.67887 9324 ft 265 kts
2026-04-21 19:22 -1.54196 36.68437 9206 ft 268 kts 19°
2026-04-21 19:22 -1.52490 36.69216 9076 ft 269 kts 23°
2026-04-21 19:23 -1.50855 36.70110 9014 ft 267 kts 28°
2026-04-21 19:23 -1.49340 36.71136 9002 ft 264 kts 33°
2026-04-21 19:23 -1.47902 36.72315 9000 ft 264 kts 39°
2026-04-21 19:23 -1.46594 36.73568 9001 ft 264 kts 43°
2026-04-21 19:24 -1.45351 36.74908 8982 ft 257 kts 46°
2026-04-21 19:24 -1.44241 36.76217 8981 ft 238 kts 48°
2026-04-21 19:24 -1.43228 36.77481 8991 ft 229 kts 49°
2026-04-21 19:24 -1.42268 36.78720 8994 ft 223 kts 52°
2026-04-21 19:25 -1.41354 36.79947 8995 ft 218 kts 51°
2026-04-21 19:25 -1.40463 36.81153 8994 ft 212 kts 51°
2026-04-21 19:25 -1.39603 36.82311 8996 ft 209 kts 51°
2026-04-21 19:25 -1.38742 36.83474 8914 ft 208 kts 51°
2026-04-21 19:26 -1.37879 36.84641 8362 ft 210 kts 51°
2026-04-21 19:26 -1.37005 36.85826 7394 ft 214 kts 51°
2026-04-21 19:26 -1.36148 36.86996 6833 ft 206 kts 52°
2026-04-21 19:26 -1.35315 36.88136 6445 ft 202 kts 52°
2026-04-21 19:27 -1.34477 36.89280 5993 ft 201 kts 52°
2026-04-21 19:27 -1.33675 36.90379 5709 ft 194 kts 52°
2026-04-21 19:27 -1.32894 36.91454 5446 ft 189 kts 52°
2026-04-21 19:27 -1.32203 36.92404 5351 ft 148 kts 51°
2026-04-21 19:28 -1.31670 36.93123 5348 ft 104 kts 53°
2026-04-21 19:28 -1.31282 36.93666 5348 ft 100 kts 52°
2026-04-21 19:28 -1.30859 36.94196 5348 ft 105 kts 51°
2026-04-21 19:28 -1.30323 36.94864 5383 ft 137 kts 48°
2026-04-21 19:29 -1.29501 36.95336 5550 ft 142 kts 10°
2026-04-21 19:29 -1.28664 36.94851 5551 ft 155 kts 304°
2026-04-21 19:29 -1.28714 36.93781 5687 ft 169 kts 244°
2026-04-21 19:29 -1.29838 36.93396 5640 ft 191 kts 172°
2026-04-21 19:30 -1.30950 36.94073 6160 ft 188 kts 141°
2026-04-21 19:30 -1.31906 36.94989 6781 ft 194 kts 133°
2026-04-21 19:30 -1.32365 36.96187 7561 ft 187 kts 94°
2026-04-21 19:30 -1.31888 36.97342 8305 ft 181 kts 49°
2026-04-21 19:31 -1.31002 36.98039 9553 ft 138 kts 32°
2026-04-21 19:31 -1.30299 36.98746 10252 ft 163 kts 44°
2026-04-21 19:31 -1.29655 36.99872 10369 ft 203 kts 64°
2026-04-21 19:31 -1.29369 37.01248 11022 ft 204 kts 81°
2026-04-21 19:32 -1.29431 37.02677 11609 ft 211 kts 94°
2026-04-21 19:32 -1.29834 37.04138 11887 ft 225 kts 108°
2026-04-21 19:32 -1.30587 37.05563 11824 ft 242 kts 120°
2026-04-21 19:32 -1.31697 37.06868 11538 ft 254 kts 134°
2026-04-21 19:33 -1.32625 37.07616 11404 ft 254 kts 143°
2026-04-21 19:33 -1.34717 37.08637 11142 ft 253 kts 161°
2026-04-21 19:33 -1.36437 37.08982 10943 ft 251 kts 174°
2026-04-21 19:33 -1.38152 37.08784 10711 ft 248 kts 198°
2026-04-21 19:34 -1.39648 37.07985 10621 ft 243 kts 214°
2026-04-21 19:34 -1.41036 37.07029 10428 ft 244 kts 218°
2026-04-21 19:34 -1.42440 37.06071 10229 ft 245 kts 216°
2026-04-21 19:34 -1.43897 37.05174 10028 ft 246 kts 213°
2026-04-21 19:35 -1.45374 37.04366 9832 ft 246 kts 210°
2026-04-21 19:35 -1.48472 37.02905 9434 ft 247 kts 206°
2026-04-21 19:35 -1.50025 37.02177 9240 ft 245 kts 208°
2026-04-21 19:36 -1.51162 37.00964 9110 ft 239 kts 240°
2026-04-21 19:36 -1.51420 36.99380 9171 ft 228 kts 271°
2026-04-21 19:36 -1.51349 36.97799 9136 ft 230 kts 273°
2026-04-21 19:36 -1.51569 36.96210 9104 ft 232 kts 261°
2026-04-21 19:37 -1.52171 36.94711 9100 ft 234 kts 246°
2026-04-21 19:37 -1.52766 36.93807 9106 ft 234 kts 237°
2026-04-21 19:37 -1.53632 36.92443 9072 ft 233 kts 243°
2026-04-21 19:37 -1.53836 36.90873 9253 ft 222 kts 272°
2026-04-21 19:38 -1.53577 36.88830 9191 ft 230 kts 281°
2026-04-21 19:38 -1.53276 36.87261 9120 ft 231 kts 282°
2026-04-21 19:38 -1.53061 36.86217 9106 ft 230 kts 283°
2026-04-21 19:38 -1.52726 36.84641 9099 ft 228 kts 283°
2026-04-21 19:39 -1.52109 36.83239 9045 ft 222 kts 304°
2026-04-21 19:39 -1.50820 36.82475 9093 ft 218 kts 341°
2026-04-21 19:39 -1.49315 36.82397 9197 ft 219 kts 359°
2026-04-21 19:39 -1.47793 36.82551 9125 ft 220 kts
2026-04-21 19:40 -1.46306 36.82802 8818 ft 215 kts
2026-04-21 19:40 -1.44875 36.83112 8528 ft 206 kts 11°
2026-04-21 19:40 -1.43506 36.83464 8263 ft 201 kts 13°
2026-04-21 19:40 -1.42180 36.83859 8023 ft 198 kts 15°
2026-04-21 19:41 -1.40472 36.84456 7729 ft 195 kts 18°
2026-04-21 19:41 -1.39616 36.84798 7582 ft 194 kts 20°
2026-04-21 19:41 -1.38416 36.85376 7361 ft 194 kts 26°
2026-04-21 19:41 -1.37306 36.86130 7077 ft 196 kts 34°
2026-04-21 19:42 -1.36296 36.87053 6691 ft 195 kts 43°
2026-04-21 19:42 -1.35398 36.88065 6270 ft 195 kts 48°
2026-04-21 19:42 -1.34573 36.89122 5916 ft 191 kts 51°
2026-04-21 19:42 -1.33791 36.90191 5638 ft 190 kts 52°
2026-04-21 19:43 -1.33036 36.91250 5497 ft 179 kts 53°
2026-04-21 19:43 -1.32404 36.92156 5351 ft 141 kts 51°
2026-04-21 19:43 -1.31891 36.92805 5348 ft 88 kts 57°
2026-04-21 19:43 -1.31707 36.93077 5347 ft 29 kts 52°
2026-04-21 19:44 -1.31626 36.93180 5347 ft 12 kts 52°
2026-04-21 19:44 -1.31573 36.93255 5347 ft 12 kts 67°
2026-04-21 19:44 -1.31559 36.93303 5347 ft 6 kts 91°
2026-04-21 19:44 -1.31590 36.93342 5347 ft 7 kts 138°
2026-04-21 19:45 -1.31657 36.93394 5347 ft 15 kts 143°
2026-04-21 19:45 -1.31739 36.93454 5347 ft 12 kts 144°
2026-04-21 19:45 -1.31800 36.93474 5347 ft 8 kts 195°
2026-04-21 19:45 -1.31856 36.93425 5347 ft 16 kts 232°
2026-04-21 19:46 -1.31943 36.93307 5347 ft 25 kts 234°
2026-04-21 19:46 -1.32031 36.93190 5347 ft 18 kts 233°
2026-04-21 19:46 -1.32100 36.93095 5347 ft 15 kts 234°
2026-04-21 19:46 -1.32156 36.93018 5347 ft 12 kts 234°
2026-04-21 19:47 -1.32215 36.92936 5347 ft 18 kts 233°
2026-04-21 19:47 -1.32311 36.92806 5347 ft 26 kts 234°
2026-04-21 19:47 -1.32416 36.92666 5347 ft 27 kts 233°
2026-04-21 19:47 -1.32514 36.92534 5347 ft 17 kts 233°
2026-04-21 19:48 -1.32580 36.92445 5347 ft 15 kts 233°
2026-04-21 19:48 -1.32641 36.92363 5347 ft 11 kts 227°
2026-04-21 19:48 -1.32690 36.92360 5347 ft 9 kts 160°
2026-04-21 19:48 -1.32757 36.92389 5347 ft 10 kts 175°
2026-04-21 19:49 -1.32836 36.92405 5347 ft 12 kts 159°
2026-04-21 19:49 -1.32880 36.92423 5347 ft 3 kts 162°
2026-04-21 19:49 -1.32881 36.92423 5347 ft 0 kts 162°